Home > Weather > Jan Mayen > Past weeks

Flag for Norway Past Weather in Jan Mayen, Jan Mayen, Norway — Yesterday and Last 2 Weeks

Now
46 °F

Cool.


Feels Like: 44 °F
Forecast: 43 / 46 °F
Wind: 3 mph from Northeast

Location: Jan Mayen

Current Time: Jul 28, 2016 at 6:57:53 AM

Latest Report: Jul 28, 2016 at 6:00 AM


Visibility: N/A

Pressure: 30.03 "Hg

Humidity: 78%

Dew Point: 39 °F

Location of Jan MayenLocation

Past Weather in Jan Mayen — Graph

°F

Jan Mayen Temperature Yesterday

Maximum temperature yesterday: 49 °F (at 3:00 PM)
Minimum temperature yesterday: 46 °F (at 11:00 PM)
Average temperature yesterday: 47 °F

High & Low Weather Summary for the Past Weeks

 TemperatureHumidityPressure
High52 °F (Jul 22, 5:00 PM)96% (Jul 23, 8:00 AM)30.15 "Hg (Jul 23, 8:00 AM)
Low37 °F (Jul 14, 3:00 AM)71% (Jul 27, 5:00 PM)29.80 "Hg (Jul 18, 8:00 AM)
Average46 °F87%30.00 "Hg
* Reported Jul 13 5:00 AM — Jul 28 5:00 AM, Jan Mayen, Weather by CustomWeather, © 2016

Note: Actual official high and low records may vary slightly from our data, if they occured in-between our weather recording intervals... More about our weather records

Advertising

Jan Mayen Weather History for the Previous 24 Hours

Scroll right to see more
 ConditionsComfort  
Time TempWeatherWind HumidityBarometerVisibility
5:00 AM
Thu, Jul 28
45 °FCool.6 mph78%30.03 "HgN/A
4:00 AM45 °FQuite cool.5 mph83%30.02 "HgN/A
3:00 AM46 °FCool.3 mph78%30.02 "HgN/A
2:00 AM45 °FScattered clouds.5 mph81%30.02 "Hg19 mi
1:00 AM46 °FCool.3 mph83%30.02 "HgN/A
12:00 AM46 °FCool.2 mph77%30.04 "HgN/A
11:00 PM
Wed, Jul 27
46 °FCool.7 mph79%30.04 "HgN/A
10:00 PM46 °FCool.7 mph79%30.04 "HgN/A
9:00 PM46 °FCool.5 mph78%30.04 "HgN/A
8:00 PM48 °FPartly sunny.5 mph75%30.04 "Hg19 mi
7:00 PM47 °FCool.7 mph74%30.04 "HgN/A
6:00 PM48 °FCool.5 mph73%30.06 "HgN/A
5:00 PM49 °FOvercast.3 mph71%30.06 "Hg12 mi
4:00 PM49 °FCool.6 mph72%30.07 "HgN/A
3:00 PM49 °FCool.5 mph72%30.08 "HgN/A
2:00 PM47 °FOvercast.7 mph74%30.09 "Hg12 mi
1:00 PM47 °FCool.3 mph76%30.10 "HgN/A
12:00 PM48 °FCool.7 mph77%30.10 "HgN/A
11:00 AM47 °FOvercast.3 mph78%30.10 "Hg12 mi
10:00 AM47 °FCool.3 mph79%30.10 "HgN/A
9:00 AM46 °FCool.5 mph83%30.10 "HgN/A
8:00 AM46 °FOvercast.3 mph85%30.10 "Hg6 mi
7:00 AM47 °FCool.3 mph84%30.09 "HgN/A
6:00 AM46 °FCool.3 mph89%30.10 "HgN/A
Weather by CustomWeather, © 2016

See weather overviewHow to use our weather pages